Northeast Philadelphia, PA

1:35 AM EST on January 23, 2018 (GMT -0500)
Northeast Philadelphia

Weather History for KPNE - August, 2014

Change the Weather History Date:

Saturday, August 9, 2014

  Actual Average Record
Temperature  
Mean Temperature 75 °F -  
Max Temperature 87 °F 83 °F 102 °F (2001)
Min Temperature 64 °F 65 °F 59 °F (2002)
Cooling Degree Days 10    
Growing Degree Days 25 (Base 50)    
Moisture  
Dew Point 55 °F    
Average Humidity 51    
Maximum Humidity 75    
Minimum Humidity 29    
Precipitation  
Precipitation 0.00 in - - ()
Sea Level Pressure  
Sea Level Pressure 30.11 in    
Wind  
Wind Speed 3 mph (North)    
Max Wind Speed 8 mph    
Max Gust Speed -    
Visibility 10 miles    
Events      
Averages and records for this station are not official NWS values.
T = Trace of Precipitation, MM = Missing Value Source: NWS Daily Summary

Daily Weather History Graph

Daily Weather History Graph

Search for Another Location

Airport or City:

Trip Planner

Search our weather history database for the weather conditions in past years. The results will help you decide how hot, cold, wet, or windy it might be!

Date:

Astronomy

Aug. 09, 2014 Rise Set
Actual Time 6:05 AM EDT 8:04 PM EDT
Civil Twilight 5:36 AM EDT 8:34 PM EDT
Nautical Twilight 4:59 AM EDT 9:10 PM EDT
Astronomical Twilight 4:20 AM EDT 9:49 PM EDT
Moon 7:04 PM EDT (8/9) 4:43 AM EDT (8/9)
Length of Visible Light 14h 58m
Length of Day
13h 58m
Waxing Gibbous, 98% of the Moon is Illuminated
Aug 9
Waxing Gibbous
Aug 10
Full
Aug 17
Last Quarter
Aug 25
New
Sep 2
First Quarter

Hourly Weather History & Observations

Time (EDT) Temp. Heat Index Dew Point Humidity Pressure Visibility Wind Dir Wind Speed Gust Speed Precip Events Conditions
1:54 AM 68.0 °F - 55.9 °F 65% 30.10 in 10.0 mi NW 4.6 mph - N/A   Clear
2:54 AM 66.0 °F - 55.0 °F 68% 30.10 in 10.0 mi Calm Calm - N/A   Clear
3:54 AM 64.0 °F - 55.9 °F 75% 30.10 in 10.0 mi Calm Calm - N/A   Clear
4:54 AM 64.9 °F - 55.0 °F 70% 30.11 in 10.0 mi NW 4.6 mph - N/A   Clear
5:54 AM 64.9 °F - 55.0 °F 70% 30.12 in 10.0 mi WNW 3.5 mph - N/A   Clear
6:54 AM 66.0 °F - 55.0 °F 68% 30.13 in 10.0 mi Calm Calm - N/A   Clear
7:54 AM 70.0 °F - 55.9 °F 61% 30.15 in 10.0 mi NNW 3.5 mph - N/A   Clear
8:54 AM 75.0 °F - 57.0 °F 53% 30.14 in 10.0 mi North 5.8 mph - N/A   Clear
9:54 AM 77.0 °F - 57.9 °F 52% 30.13 in 10.0 mi ENE 4.6 mph - N/A   Clear
10:54 AM 80.1 °F 80.4 °F 57.0 °F 45% 30.13 in 10.0 mi NE 6.9 mph - N/A   Clear
11:54 AM 82.9 °F 81.8 °F 53.1 °F 36% 30.13 in 10.0 mi North 4.6 mph - N/A   Partly Cloudy
1:54 PM 84.0 °F - 48.9 °F 29% 30.11 in 10.0 mi Calm Calm - N/A   Clear
2:54 PM 86.0 °F - 50.0 °F 29% 30.10 in 10.0 mi ENE 4.6 mph - N/A   Mostly Cloudy
3:54 PM 86.0 °F - 50.0 °F 29% 30.09 in 10.0 mi North - - N/A   Clear
4:54 PM 84.9 °F - 51.1 °F 31% 30.08 in 10.0 mi WNW 8.1 mph - N/A   Clear
5:54 PM 86.0 °F - 50.0 °F 29% 30.08 in 10.0 mi NW 5.8 mph - N/A   Mostly Cloudy
6:54 PM 84.0 °F - 48.9 °F 29% 30.08 in 10.0 mi NNW 4.6 mph - N/A   Partly Cloudy
7:54 PM 78.1 °F - 53.1 °F 42% 30.08 in 10.0 mi NE 6.9 mph - N/A   Clear
8:54 PM 77.0 °F - 57.9 °F 52% 30.10 in 10.0 mi Variable 3.5 mph - N/A   Clear
9:54 PM 73.9 °F - 60.1 °F 62% 30.13 in 10.0 mi SE 3.5 mph - N/A   Clear
10:54 PM 73.9 °F - 60.1 °F 62% 30.13 in 10.0 mi SSE 3.5 mph - N/A   Clear
11:54 PM 70.0 °F - 60.1 °F 71% 30.14 in 10.0 mi Calm Calm - N/A   Clear